Home   Weather   Kigali   Past weeks

Flag for Rwanda Past Weather in Kigali, Rwanda — Yesterday and Last 2 Weeks

Now
66 °F

Passing clouds.


Feels Like: 66 °F
Forecast: 56 / 80 °F
Wind: 2 mph from North

Location: Kigali Airport

Current Time: Dec 5, 2016 at 10:59:46 pm

Latest Report: Dec 5, 2016 at 10:00 pm


Visibility: N/A

Pressure: 30.09 "Hg (25.09 "Hg at 1555m altitude)

Humidity: 73%

Dew Point: 57 °F

Location of KigaliLocation

Past Weather in Kigali — Graph

°F

Kigali Temperature Yesterday

Maximum temperature yesterday: 77 °F (at 2:30 pm)
Minimum temperature yesterday: 59 °F (at 2:00 am)
Average temperature yesterday: 65 °F

High & Low Weather Summary for the Past Weeks

 TemperatureHumidityPressure
High82 °F (Nov 24, 2:00 pm)100% (Nov 23, 4:30 am)30.24 "Hg (Nov 23, 4:30 am)
Low59 °F (Dec 4, 2:00 am)45% (Nov 24, 3:00 pm)29.95 "Hg (Nov 28, 3:30 pm)
Average68 °F80%30.11 "Hg
* Reported Nov 20 9:00 pm — Dec 5 9:30 pm, Kigali, Weather by CustomWeather, © 2016

Note: Actual official high and low records may vary slightly from our data, if they occured in-between our weather recording intervals... More about our weather records

Advertising

Kigali Weather History for the Previous 24 Hours

Scroll right to see more
 ConditionsComfort  
Time TempWeatherWind HumidityBarometerVisibility
9:30 pm
Mon, Dec 5
66 °FPassing clouds.5 mph73%30.09 "HgN/A
9:00 pm66 °FPassing clouds.3 mph73%30.12 "HgN/A
8:30 pm68 °FPassing clouds.2 mph69%30.12 "HgN/A
8:00 pm66 °FPassing clouds.6 mph73%30.09 "HgN/A
7:30 pm66 °FPassing clouds.6 mph73%30.09 "HgN/A
7:00 pm68 °FPassing clouds.6 mph69%30.07 "HgN/A
6:30 pm68 °FPartly cloudy.7 mph69%30.07 "HgN/A
6:00 pm68 °FPassing clouds.9 mph69%30.07 "HgN/A
5:30 pm68 °FPartly sunny.14 mph69%30.04 "HgN/A
5:00 pm68 °FPartly sunny.21 mph73%30.04 "HgN/A
4:30 pm70 °FThunderstorms. Scattered clouds.21 mph73%30.01 "HgN/A
4:00 pm77 °FScattered clouds.12 mph54%30.01 "HgN/A
3:30 pm79 °FScattered clouds.12 mph51%30.01 "HgN/A
3:00 pm79 °FScattered clouds.10 mph54%30.01 "HgN/A
2:30 pm79 °FScattered clouds.9 mph51%30.04 "HgN/A
2:00 pm79 °FScattered clouds.7 mph54%30.04 "HgN/A
1:00 pm79 °FScattered clouds.12 mph51%30.07 "HgN/A
12:30 pm79 °FPartly sunny.10 mph51%30.09 "HgN/A
12:00 pm81 °FScattered clouds.9 mph58%30.12 "HgN/A
11:30 am68 °FPartly sunny.8 mph83%30.12 "HgN/A
11:00 am77 °FScattered clouds.3 mph61%30.12 "HgN/A
10:30 am75 °FScattered clouds.5 mph69%30.15 "HgN/A
10:00 am75 °FScattered clouds.2 mph61%30.15 "HgN/A
9:30 am72 °FScattered clouds.1 mph78%30.15 "HgN/A
9:00 am68 °FScattered clouds.2 mph83%30.15 "HgN/A
8:30 am64 °FScattered clouds.2 mph94%30.15 "Hg6 mi
8:00 am66 °FScattered clouds.1 mph88%30.15 "HgN/A
7:30 am64 °FScattered clouds.No wind94%30.12 "Hg6 mi
7:00 am61 °FFog.2 mph94%30.12 "Hg3 mi
6:30 am61 °FScattered clouds.2 mph94%30.12 "HgN/A
12:30 am64 °FPassing clouds.2 mph94%30.12 "HgN/A
12:00 am64 °FPassing clouds.5 mph94%30.12 "Hg4 mi
11:30 pm
Sun, Dec 4
64 °FPassing clouds.5 mph94%30.12 "HgN/A
11:00 pm64 °FPassing clouds.No wind94%30.12 "HgN/A
10:30 pm66 °FPassing clouds.2 mph88%30.12 "HgN/A
10:00 pm64 °FPassing clouds.2 mph94%30.12 "HgN/A
Weather by CustomWeather, © 2016

See weather overviewHow to use our weather pages